Home
>
homepage
| CIK | Ticker | Name | Date | Form |
|---|---|---|---|---|
| 1313816 | TimesSquare Capital Management, LLC | 2026-05-07 06:16:03 | 13F-HR | |
| 1818874 | SOFI | SoFi Technologies, Inc. | 2026-05-07 06:15:46 | 10-Q | | |
| 2133603 | HSU SHIH-CHIEH | 2026-05-07 06:15:44 | 3 | |
| 1033767 | UMC | UNITED MICROELECTRONICS CORP | 2026-05-07 06:15:44 | 3 |
| 1389170 | TRGP | Targa Resources Corp. | 2026-05-07 06:15:18 | 8-K | | |
| 1812727 | EZRA | Reliance Global Group, Inc. | 2026-05-07 06:15:16 | 8-K | | |
| 1959455 | HSHP | Himalaya Shipping Ltd. | 2026-05-07 06:15:11 | 6-K |
| 1306965 | RYDAF | Shell plc | 2026-05-07 06:15:07 | 6-K |
| 1983324 | RMSGW | Real Messenger Corp | 2026-05-07 06:14:55 | 6-K |
| 2133595 | CHENG TZYY-MING | 2026-05-07 06:14:27 | 3 | |
| 1033767 | UMC | UNITED MICROELECTRONICS CORP | 2026-05-07 06:14:27 | 3 |
| 1736035 | BXSL | Blackstone Secured Lending Fund | 2026-05-07 06:13:37 | 10-Q | | |
| 2133596 | TZOU SHIH-FANG | 2026-05-07 06:13:17 | 3 | |
| 1033767 | UMC | UNITED MICROELECTRONICS CORP | 2026-05-07 06:13:17 | 3 |
| 1805754 | swisspartners Advisors Ltd | 2026-05-07 06:13:03 | 13F-HR | |
| 2133520 | Davis Marlie | 2026-05-07 06:12:54 | 4 | |
| 1004724 | RHEPB | REGIONAL HEALTH PROPERTIES, INC | 2026-05-07 06:12:54 | 4 |
| 1144967 | HDB | HDFC BANK LTD | 2026-05-07 06:12:26 | 4 |
| 2113168 | RAJPUT RAKESH KUMAR | 2026-05-07 06:12:26 | 4 | |
| 1881487 | ACDC | ProFrac Holding Corp. | 2026-05-07 06:12:07 | 8-K | | |
| 2133571 | CHEN MING-TSUNG | 2026-05-07 06:11:51 | 3 | |
| 1033767 | UMC | UNITED MICROELECTRONICS CORP | 2026-05-07 06:11:51 | 3 |
| 2128683 | Scenic Co-Invest Handshake LLC | 2026-05-07 06:11:07 | D/A | |
| 2094076 | OTAI | Starlink AI Acquisition Corp | 2026-05-07 06:10:28 | 8-A12B |
| 2133520 | Davis Marlie | 2026-05-07 06:10:15 | 3 | |
| 1004724 | RHEPB | REGIONAL HEALTH PROPERTIES, INC | 2026-05-07 06:10:15 | 3 |
| 1141103 | CCRN | CROSS COUNTRY HEALTHCARE INC | 2026-05-07 06:10:05 | DEFA14A |
| 2133601 | CHUANG YU-CHIH | 2026-05-07 06:09:58 | 3 | |
| 1033767 | UMC | UNITED MICROELECTRONICS CORP | 2026-05-07 06:09:58 | 3 |
| 1704292 | ZLAB | Zai Lab Ltd | 2026-05-07 06:09:56 | 10-Q | | |
| 1420800 | ENOV | Enovis CORP | 2026-05-07 06:09:34 | 8-K | | |
| 2010788 | EXOZ | EXOZYMES INC. | 2026-05-07 06:08:37 | 8-K | | |
| 2133616 | LIN JEN-TSUNG | 2026-05-07 06:08:29 | 3 | |
| 1033767 | UMC | UNITED MICROELECTRONICS CORP | 2026-05-07 06:08:29 | 3 |
| 1844862 | SLDPW | Solid Power, Inc. | 2026-05-07 06:08:10 | 8-K | | |
| 1748790 | AMCCF | Amcor plc | 2026-05-07 06:08:07 | 10-Q | | |
| 1875444 | ARHS | Arhaus, Inc. | 2026-05-07 06:07:52 | 10-Q | | |
| 1829118 | TUYA | Tuya Inc. | 2026-05-07 06:07:52 | 6-K |
| 1141103 | CCRN | CROSS COUNTRY HEALTHCARE INC | 2026-05-07 06:07:39 | 8-K | | |
| 1759655 | PRVA | Privia Health Group, Inc. | 2026-05-07 06:07:16 | 8-K | | |
| 1033767 | UMC | UNITED MICROELECTRONICS CORP | 2026-05-07 06:07:04 | 3 |
| 2133550 | CHANG OLIVER | 2026-05-07 06:07:04 | 3 | |
| 1144967 | HDB | HDFC BANK LTD | 2026-05-07 06:06:30 | 6-K |
| 1828316 | PHAR | Pharming Group N.V. | 2026-05-07 06:06:21 | 6-K |
| 1793229 | CTEV | Claritev Corp | 2026-05-07 06:06:11 | 8-K | | |
| 1347858 | XXII | 22nd Century Group, Inc. | 2026-05-07 06:06:10 | 8-K | | |
| 739421 | CZFS | CITIZENS FINANCIAL SERVICES INC | 2026-05-07 06:05:45 | 10-Q | | |
| 1875444 | ARHS | Arhaus, Inc. | 2026-05-07 06:05:35 | 8-K | | |
| 1033767 | UMC | UNITED MICROELECTRONICS CORP | 2026-05-07 06:05:24 | 3 |
| 2133611 | HUNG KUEI-CHUN | 2026-05-07 06:05:24 | 3 | |
| 1704292 | ZLAB | Zai Lab Ltd | 2026-05-07 06:05:13 | 8-K | | |
| 1816007 | LU | Lufax Holding Ltd | 2026-05-07 06:04:59 | 6-K |
| 1326200 | GNK | GENCO SHIPPING & TRADING LTD | 2026-05-07 06:04:29 | ARS |
| 1497770 | WD | Walker & Dunlop, Inc. | 2026-05-07 06:04:14 | 10-Q | | |
| 1602842 | ORIO | Orion Digital Corp. | 2026-05-07 06:04:13 | 6-K |
| 1965002 | Seros Alexandra | 2026-05-07 06:04:13 | SCHEDULE 13D/A | |
| 1109116 | EVC | ENTRAVISION COMMUNICATIONS CORP | 2026-05-07 06:04:13 | SCHEDULE 13D/A |
| 1828316 | PHAR | Pharming Group N.V. | 2026-05-07 06:04:04 | 6-K |
| 1857816 | GCT | GigaCloud Technology Inc | 2026-05-07 06:03:43 | 10-Q | | |
| 1590750 | VRDN | Viridian Therapeutics, Inc.\DE | 2026-05-07 06:03:40 | FWP |
| 1014111 | GLAE | GlassBridge Enterprises, Inc. | 2026-05-07 06:03:36 | REVOKED |
| 1846416 | HVIIU | Hennessy Capital Investment Corp. VII | 2026-05-07 06:03:06 | 425 |
| 2133590 | WU CHUNG-HSIEN | 2026-05-07 06:03:01 | 3 | |
| 1033767 | UMC | UNITED MICROELECTRONICS CORP | 2026-05-07 06:03:01 | 3 |
| 1934114 | SUJA | SUJA LIFE, INC. | 2026-05-07 06:02:54 | 8-A12B |
| 59558 | LNC-PD | LINCOLN NATIONAL CORP | 2026-05-07 06:02:49 | 8-K | | |
| 313143 | HAE | HAEMONETICS CORP | 2026-05-07 06:02:40 | 8-K | | |
| 1163653 | NRSCF | NOMURA HOLDINGS INC | 2026-05-07 06:02:39 | 6-K |
| 1590750 | VRDN | Viridian Therapeutics, Inc.\DE | 2026-05-07 06:02:37 | FWP |
| 1172724 | GFIOF | GOLD FIELDS LTD | 2026-05-07 06:02:31 | 6-K |
| 1857816 | GCT | GigaCloud Technology Inc | 2026-05-07 06:02:24 | 8-K | | |
| 1922641 | ENLT | Enlight Renewable Energy Ltd. | 2026-05-07 06:02:23 | SCHEDULE 13G/A |
| 1351917 | MENORA MIVTACHIM HOLDINGS LTD. | 2026-05-07 06:02:23 | SCHEDULE 13G/A | |
| 1576940 | CCS | Century Communities, Inc. | 2026-05-07 06:02:20 | 8-K | | |
| 1112996 | AIM COUNSELOR SERIES TRUST (INVESCO COUNSELOR SERIES TRUST) | 2026-05-07 06:02:08 | N-CSRS | |
| 842790 | AIM INVESTMENT SECURITIES FUNDS (INVESCO INVESTMENT SECURITIES FUNDS) | 2026-05-07 06:02:02 | N-CSR | |
| 1003935 | NCSYF | NICE Ltd. | 2026-05-07 06:02:02 | 6-K |
| 1122976 | AVNT | AVIENT CORP | 2026-05-07 06:01:59 | 8-K | | |
| 1341766 | CELH | Celsius Holdings, Inc. | 2026-05-07 06:01:53 | 8-K | | |
| 1124105 | GYRE | GYRE THERAPEUTICS, INC. | 2026-05-07 06:01:44 | SCHEDULE 13D/A |
| 1985547 | Ma Songjiang | 2026-05-07 06:01:44 | SCHEDULE 13D/A | |
| 1438533 | TVTX | Travere Therapeutics, Inc. | 2026-05-07 06:01:43 | FWP |
| 205007 | SHORT-TERM INVESTMENTS TRUST | 2026-05-07 06:01:38 | N-CSRS | |
| 2100782 | GENB | Generate Biomedicines, Inc. | 2026-05-07 06:01:38 | 10-Q | | |
| 1326200 | GNK | GENCO SHIPPING & TRADING LTD | 2026-05-07 06:01:34 | DEFC14A |
| 1590750 | VRDN | Viridian Therapeutics, Inc.\DE | 2026-05-07 06:01:30 | 305B2 |
| 1131343 | PRNAF | ALTERITY THERAPEUTICS LTD | 2026-05-07 06:01:28 | 6-K |
| 828806 | AIM TREASURER'S SERIES TRUST (INVESCO TREASURER'S SERIES TRUST) | 2026-05-07 06:01:19 | N-CSRS | |
| 2126427 | Jiang Jun Jason | 2026-05-07 06:01:17 | 4 | |
| 1967631 | NAMI | Jinxin Technology Holding Co | 2026-05-07 06:01:17 | 4 |
| 1210677 | FA | FIRST ADVANTAGE CORP | 2026-05-07 06:01:07 | 8-K | | |
| 1497770 | WD | Walker & Dunlop, Inc. | 2026-05-07 06:01:00 | 8-K | | |
| 1033767 | UMC | UNITED MICROELECTRONICS CORP | 2026-05-07 06:00:49 | 6-K |
| 1605283 | Invesco Management Trust | 2026-05-07 06:00:47 | N-CSRS | |
| 1094366 | RDWR | RADWARE LTD | 2026-05-07 06:00:42 | 6-K |
| 2100782 | GENB | Generate Biomedicines, Inc. | 2026-05-07 06:00:26 | 8-K | | |
| 837276 | Voya INVESTORS TRUST | 2026-05-07 06:00:15 | N-MFP3 | |
| 1342338 | HIMX | Himax Technologies, Inc. | 2026-05-07 06:00:09 | 6-K |
| 723254 | CTAS | CINTAS CORP | 2026-05-07 00:15:33 | EFFECT |
| 1120970 | LODE | Comstock Inc. | 2026-05-07 00:15:32 | EFFECT |